#timestamp,LO_Frequency,Hit,StdDev 
1505541615.1,286047000.2,N
1505541616.0,286047000.2,N
1505541635.8,286046990.6,Y
1505541655.6,286046990.4,P
1505541675.5,286046995.3,N
1505541695.3,286046998.5,N
1505541715.1,286047002.8,N
1505541735.9,286047007.5,N
1505541755.7,286047004.8,N
1505541775.5,286047007.1,N
1505541795.4,286047005.1,N
1505541815.2,286047005.1,N
1505541835.0,286047005.0,N
1505541835.9,286047005.0,N
1505541855.8,286047008.4,N
1505541875.6,286047011.1,N
1505541895.4,286047011.8,N
1505541915.3,286047014.8,N
1505541935.1,286047014.2,N
1505541936.0,286047014.2,N
1505541955.8,286047014.2,N
1505541975.7,286047020.3,Y
1505541995.5,286047017.1,P
1505542015.3,286047014.5,N
1505542035.2,286047016.2,P
1505542055.9,286047014.3,Y
1505542075.7,286047001.4,P
1505542095.6,286047002.5,N
1505542115.4,286047002.5,N
1505542135.2,286047003.2,N
1505542155.0,286047004.1,N
1505542156.0,286047004.1,N
1505542175.8,286047003.6,N
1505542195.6,286047005.6,N
1505542215.4,286047003.8,N
1505542235.3,286047005.9,N
1505542255.1,286047007.1,N
1505542275.8,286047008.3,N
1505542295.7,286047010.7,Y
1505542315.5,286047004.7,P
1505542335.3,286047010.6,P
1505542355.2,286047008.7,P
1505542375.9,286047008.9,Y
1505542395.7,286047002.1,P
1505542415.6,286047005.2,N
1505542435.4,286047005.5,N
1505542455.2,286047005.3,N
1505542475.1,286047007.2,Y
1505542476.0,286047007.2,P
1505542495.8,286047002.8,N
1505542515.6,286047002.5,N
1505542535.5,286047002.0,N
1505542555.3,286047002.2,N
1505542575.1,286047002.4,N
1505542595.9,286046999.8,N
1505542615.7,286047003.7,N
1505542635.5,286047005.2,N
1505542655.4,286047004.4,N
1505542675.2,286047004.6,N
1505542695.0,286047007.4,Y
1505542695.9,286047007.4,P
1505542715.8,286047005.7,N
1505542735.6,286047005.5,P
1505542755.4,286047006.7,Y
1505542775.3,286046999.7,P
1505542795.1,286046998.5,N
1505542796.0,286046998.5,N
1505542815.8,286046998.5,N
1505542835.7,286046999.9,N
1505542855.5,286046997.9,N
1505542875.3,286046995.5,N
1505542895.1,286046999.5,N
1505542915.9,286047001.2,N
1505542935.7,286046997.7,N
1505542955.5,286046994.9,N
1505542975.4,286046997.1,N
1505542995.2,286046998.3,N
1505543015.0,286047002.6,N
1505543015.9,286047002.6,N
1505543035.8,286046998.9,N
1505543055.6,286046998.9,N
1505543075.4,286047002.5,N
1505543095.3,286047002.6,N
1505543115.1,286046998.5,N
1505543116.0,286046998.5,N
1505543135.8,286046999.3,N
1505543155.7,286046998.6,N
1505543175.5,286046997.1,N
1505543195.3,286046993.3,N
1505543215.1,286046997.3,N
1505543235.9,286047001.3,N
1505543255.7,286047004.7,N
1505543275.5,286047003.7,N
1505543295.4,286047002.7,N
1505543315.2,286046999.9,N
1505543335.0,286047002.4,N
1505543335.9,286047002.4,N
1505543355.8,286047004.3,N
1505543375.6,286046998.5,N
1505543395.4,286047001.1,N
1505543415.3,286047004.0,N
1505543435.1,286047005.5,N
1505543436.0,286047005.5,N
1505543455.8,286047002.9,N
1505543475.7,286047001.7,N
1505543495.5,286046999.8,N
1505543515.3,286047002.5,N
1505543535.2,286047003.8,N
1505543555.9,286047006.1,N
1505543575.7,286046999.7,N
1505543595.5,286046996.7,N
1505543615.4,286046999.9,N
1505543635.2,286047001.2,N
1505543655.0,286047002.7,N
1505543655.9,286047002.7,N
1505543675.8,286047000.1,N
1505543695.6,286047003.3,N
1505543715.4,286047005.5,N
1505543735.3,286047003.1,N
1505543755.1,286047001.8,N
1505543775.8,286047001.7,N
1505543795.7,286047000.6,N
1505543815.5,286047004.3,N
1505543835.3,286047002.5,N
1505543855.2,286047001.1,N
1505543875.9,286046999.7,N
1505543895.7,286047002.8,N
1505543915.5,286047000.7,N
1505543935.4,286046999.5,N
1505543955.2,286046994.2,N
1505543975.0,286046995.9,N
1505543975.9,286046995.9,N
1505543995.8,286046994.6,N
1505544015.6,286046996.2,N
1505544035.4,286046994.4,N
1505544055.3,286046995.4,N
1505544075.1,286046995.4,N
1505544095.8,286046996.6,N
1505544115.7,286047000.0,N
1505544135.5,286046998.7,N
1505544155.3,286046997.6,N
1505544175.2,286046996.9,N
1505544195.9,286046996.7,N
1505544215.7,286046997.8,N
1505544235.6,286046994.9,N
1505544255.4,286046996.0,N
1505544275.2,286046992.1,N
1505544295.0,286046992.7,N
1505544296.0,286046992.7,N
1505544315.8,286046989.1,Y
1505544335.6,286046992.2,P
1505544355.5,286046995.6,N
1505544375.3,286046995.5,N
1505544395.1,286046994.4,N
1505544415.8,286046996.7,N
1505544435.7,286046995.6,N
1505544455.5,286046996.0,N
1505544475.3,286046992.2,Y
1505544495.2,286046997.8,P
1505544515.0,286046998.8,N
1505544515.9,286046998.8,N
1505544535.7,286046999.1,N
1505544555.6,286046996.5,N
1505544575.4,286046998.0,N
1505544595.2,286046995.0,Y
1505544615.1,286047001.1,P
1505544616.0,286047001.1,N
1505544635.8,286047000.6,N
1505544655.6,286047000.8,N
1505544675.5,286046998.6,N
1505544695.3,286046998.6,N
1505544715.1,286046998.2,N
1505544735.9,286047000.0,N
1505544755.7,286047000.7,N
1505544775.5,286046999.2,N
1505544795.4,286047002.6,N
1505544815.2,286046998.5,N
1505544835.0,286046998.7,N
1505544835.9,286046998.7,N
1505544855.8,286046995.0,Y
1505544875.6,286046993.7,P
1505544895.4,286046995.6,N
1505544915.2,286046997.8,N
1505544935.1,286046997.4,N
1505544936.0,286046997.4,N
1505544955.8,286046996.7,N
1505544975.6,286046997.4,N
1505544995.5,286047000.3,N
1505545015.3,286047002.1,N
1505545035.1,286047001.0,N
1505545055.9,286046999.5,N
1505545075.7,286046999.1,N
1505545095.5,286046998.5,N
1505545115.4,286047001.0,N
1505545135.2,286046999.6,N
1505545155.0,286046997.7,N
1505545155.9,286046997.7,N
1505545175.8,286046994.9,N
1505545195.6,286046995.7,N
